Weather History for Olney-Noble, IL

Change the Weather History Date:

Saturday, April 28, 2012

  Actual Average (KEVV) Record (KEVV)
Temperature  
Mean Temperature 20 °C 16 °C  
Max Temperature 28 °C 22 °C 30 °C (1951)
Min Temperature 13 °C 9 °C 1 °C (1928)
Degree Days  
Heating Degree Days 0 6  
Month to date heating degree days 277  
Since 1 July heating degree days 4443  
Cooling Degree Days 4 1  
Month to date cooling degree days 20  
Year to date cooling degree days 23  
Growing Degree Days 18 (Base 50)    
Moisture  
Dew Point 11 °C    
Average Humidity 63    
Maximum Humidity 94    
Minimum Humidity 41    
Precipitation  
Precipitation 13.72 mm 4.06 mm 15.34 mm (1996)
Month to date precipitation 4.04  
Year to date precipitation 14.55  
Snow  
Snow 0.00 cm 0.00 cm 0.00 cm (2001)
Month to date snowfall 0.1  
Since 1 July snowfall 11.8  
Snow Depth -    
Sea Level Pressure  
Sea Level Pressure 1014 hPa    
Wind  
Wind Speed 14 km/h (ESE)    
Max Wind Speed 24 km/h    
Max Gust Speed 37 km/h    
Visibility 15 kilometers    
Events Rain , Thunderstorm    
T = Trace of Precipitation, MM = Missing Value Source: NWS Daily Summary

Daily Weather History Graph

Daily Weather History Graph

Search for Another Location

Airport:

Trip Planner

Search our weather history database for the weather conditions in past years. The results will help you decide how hot, cold, wet, or windy it might be!

Date:

Astronomy

Apr. 28, 2012 Rise Set
Actual Time 5:58 AM CDT 7:42 PM CDT
Civil Twilight 5:29 AM CDT 8:11 PM CDT
Nautical Twilight 4:55 AM CDT 8:45 PM CDT
Astronomical Twilight 4:18 AM CDT 9:22 PM CDT
Moon 11:37 AM CDT (4/28) 1:06 AM CDT (4/28)
Length of Visible Light 14h 41m
Length of Day
13h 44m
Waxing Crescent, 43% of the Moon is Illuminated
Apr 28
Waxing Crescent
Apr 29
First Quarter
May 5
Full
May 12
Last Quarter
May 20
New

Hourly Weather History & Observations

Time (CDT) Temp. Heat Index Dew Point Humidity Pressure Visibility Wind Dir Wind Speed Gust Speed Precip Events Conditions
12:15 AM 14.0 °C - 2.0 °C 44% 1015.8 hPa 16.1 km East 16.7 km/h / 4.6 m/s - N/A   Overcast
12:35 AM 14.0 °C - 1.0 °C 41% 1015.8 hPa 16.1 km ESE 13.0 km/h / 3.6 m/s - N/A   Overcast
12:55 AM 14.0 °C - 1.0 °C 41% 1015.8 hPa 16.1 km East 16.7 km/h / 4.6 m/s - N/A   Overcast
1:15 AM 14.0 °C - 1.0 °C 41% 1015.5 hPa 16.1 km East 16.7 km/h / 4.6 m/s - N/A   Overcast
1:35 AM 14.0 °C - 1.0 °C 41% 1014.8 hPa 16.1 km East 20.4 km/h / 5.7 m/s - N/A   Scattered Clouds
1:55 AM 14.0 °C - 1.0 °C 41% 1014.1 hPa 16.1 km ESE 16.7 km/h / 4.6 m/s - N/A   Clear
2:15 AM 13.0 °C - 2.0 °C 47% 1013.8 hPa 16.1 km ESE 18.5 km/h / 5.1 m/s - N/A   Scattered Clouds
2:35 AM 13.0 °C - 2.0 °C 47% 1013.4 hPa 16.1 km East 18.5 km/h / 5.1 m/s - N/A   Scattered Clouds
2:55 AM 13.0 °C - 2.0 °C 47% 1013.4 hPa 16.1 km East 18.5 km/h / 5.1 m/s - N/A   Scattered Clouds
3:15 AM 13.0 °C - 2.0 °C 47% 1013.1 hPa 16.1 km ESE 18.5 km/h / 5.1 m/s - N/A   Mostly Cloudy
3:35 AM 14.0 °C - 2.0 °C 44% 1013.4 hPa 16.1 km ESE 14.8 km/h / 4.1 m/s - N/A   Mostly Cloudy
3:55 AM 14.0 °C - 3.0 °C 48% 1013.4 hPa 16.1 km ESE 14.8 km/h / 4.1 m/s - N/A   Overcast
4:15 AM 14.0 °C - 3.0 °C 48% 1013.1 hPa 16.1 km ESE 14.8 km/h / 4.1 m/s - N/A   Overcast
4:35 AM 14.0 °C - 3.0 °C 48% 1013.4 hPa 16.1 km ESE 18.5 km/h / 5.1 m/s 25.9 km/h / 7.2 m/s N/A   Mostly Cloudy
4:55 AM 14.0 °C - 3.0 °C 48% 1013.1 hPa 16.1 km ESE 16.7 km/h / 4.6 m/s - N/A   Mostly Cloudy
5:15 AM 13.0 °C - 3.0 °C 51% 1013.1 hPa 16.1 km ESE 18.5 km/h / 5.1 m/s - N/A   Scattered Clouds
5:35 AM 13.0 °C - 4.0 °C 54% 1013.1 hPa 16.1 km ESE 16.7 km/h / 4.6 m/s - N/A   Scattered Clouds
5:55 AM 13.0 °C - 4.0 °C 54% 1013.1 hPa 16.1 km ESE 13.0 km/h / 3.6 m/s - N/A   Mostly Cloudy
6:15 AM 13.0 °C - 4.0 °C 54% 1012.8 hPa 16.1 km ESE 16.7 km/h / 4.6 m/s - N/A   Mostly Cloudy
6:35 AM 13.0 °C - 4.0 °C 54% 1012.8 hPa 16.1 km ESE 18.5 km/h / 5.1 m/s - N/A   Mostly Cloudy
6:55 AM 14.0 °C - 4.0 °C 51% 1012.8 hPa 16.1 km ESE 18.5 km/h / 5.1 m/s - N/A Thunderstorm Mostly Cloudy
7:15 AM 14.0 °C - 4.0 °C 51% 1013.1 hPa 16.1 km SE 16.7 km/h / 4.6 m/s - N/A Rain Light Rain
7:35 AM 14.0 °C - 5.0 °C 55% 1013.1 hPa 16.1 km ESE 13.0 km/h / 3.6 m/s - N/A   Mostly Cloudy
7:55 AM 15.0 °C - 6.0 °C 55% 1013.1 hPa 16.1 km SE 13.0 km/h / 3.6 m/s - N/A   Scattered Clouds
8:15 AM 16.0 °C - 6.0 °C 52% 1013.1 hPa 16.1 km SE 11.1 km/h / 3.1 m/s - N/A   Mostly Cloudy
8:35 AM 16.0 °C - 7.0 °C 55% 1013.1 hPa 16.1 km SE 18.5 km/h / 5.1 m/s - N/A   Mostly Cloudy
8:55 AM 18.0 °C - 8.0 °C 52% 1013.1 hPa 16.1 km SSE 13.0 km/h / 3.6 m/s - N/A   Scattered Clouds
9:15 AM 18.0 °C - 9.0 °C 56% 1013.1 hPa 16.1 km SSE 11.1 km/h / 3.1 m/s - N/A   Mostly Cloudy
9:35 AM 19.0 °C - 10.0 °C 56% 1012.8 hPa 16.1 km SSE 9.3 km/h / 2.6 m/s - N/A   Mostly Cloudy
9:55 AM 21.0 °C - 12.0 °C 56% 1012.8 hPa 16.1 km South 13.0 km/h / 3.6 m/s - N/A   Scattered Clouds
10:15 AM 21.0 °C - 13.0 °C 60% 1012.8 hPa 16.1 km South 14.8 km/h / 4.1 m/s - N/A   Scattered Clouds
10:35 AM 23.0 °C - 14.0 °C 57% 1012.8 hPa 16.1 km South 7.4 km/h / 2.1 m/s - N/A   Scattered Clouds
10:55 AM 22.0 °C - 14.0 °C 60% 1012.8 hPa 16.1 km South 11.1 km/h / 3.1 m/s - N/A   Mostly Cloudy
11:15 AM 24.0 °C - 15.0 °C 57% 1012.8 hPa 16.1 km South 11.1 km/h / 3.1 m/s - N/A   Mostly Cloudy
11:35 AM 25.0 °C - 16.0 °C 57% 1012.8 hPa 16.1 km South 11.1 km/h / 3.1 m/s - N/A   Scattered Clouds
11:55 AM 25.0 °C - 16.0 °C 57% 1012.4 hPa 16.1 km South 9.3 km/h / 2.6 m/s - N/A   Mostly Cloudy
12:15 PM 27.0 °C 27.7 °C 17.0 °C 54% 1012.4 hPa 16.1 km South 7.4 km/h / 2.1 m/s - N/A   Scattered Clouds
12:35 PM 27.0 °C 27.7 °C 17.0 °C 54% 1012.1 hPa 16.1 km South 9.3 km/h / 2.6 m/s - N/A   Scattered Clouds
12:55 PM 27.0 °C 27.7 °C 17.0 °C 54% 1012.1 hPa 16.1 km SSW 9.3 km/h / 2.6 m/s - N/A   Scattered Clouds
1:15 PM 26.0 °C - 17.0 °C 57% 1011.7 hPa 16.1 km SSW 13.0 km/h / 3.6 m/s - N/A   Mostly Cloudy
1:35 PM 27.0 °C 27.7 °C 17.0 °C 54% 1011.7 hPa 16.1 km South 9.3 km/h / 2.6 m/s - N/A   Overcast
1:55 PM 27.0 °C 27.9 °C 18.0 °C 58% 1011.7 hPa 16.1 km South 16.7 km/h / 4.6 m/s - N/A   Mostly Cloudy
2:15 PM 28.0 °C 28.8 °C 18.0 °C 54% 1012.1 hPa 16.1 km South 9.3 km/h / 2.6 m/s - N/A   Mostly Cloudy
2:35 PM 27.0 °C 27.7 °C 17.0 °C 54% 1012.1 hPa 16.1 km SSW 7.4 km/h / 2.1 m/s - N/A   Mostly Cloudy
2:55 PM 27.0 °C 27.7 °C 17.0 °C 54% 1012.1 hPa 16.1 km WSW 9.3 km/h / 2.6 m/s - N/A   Mostly Cloudy
3:15 PM 26.0 °C - 18.0 °C 61% 1012.1 hPa 16.1 km WSW 9.3 km/h / 2.6 m/s - N/A   Scattered Clouds
3:35 PM 27.0 °C 27.9 °C 18.0 °C 58% 1011.7 hPa 16.1 km WSW 9.3 km/h / 2.6 m/s - N/A   Scattered Clouds
3:55 PM 27.0 °C 27.9 °C 18.0 °C 58% 1012.1 hPa 16.1 km West 11.1 km/h / 3.1 m/s - N/A Thunderstorm Clear
4:15 PM 27.0 °C 27.9 °C 18.0 °C 58% 1012.1 hPa 16.1 km WNW 13.0 km/h / 3.6 m/s - N/A   Scattered Clouds
4:35 PM 23.0 °C - 15.0 °C 61% 1012.8 hPa 16.1 km NNE 24.1 km/h / 6.7 m/s 37.0 km/h / 10.3 m/s N/A   Mostly Cloudy
4:55 PM 21.0 °C - 14.0 °C 64% 1013.1 hPa 11.3 km NE 18.5 km/h / 5.1 m/s - N/A   Overcast
5:15 PM 20.0 °C - 15.0 °C 73% 1013.1 hPa 16.1 km ENE 14.8 km/h / 4.1 m/s - N/A Thunderstorm Mostly Cloudy
5:35 PM 20.0 °C - 16.0 °C 78% 1013.4 hPa 16.1 km ENE 13.0 km/h / 3.6 m/s - N/A   Scattered Clouds
5:55 PM 19.0 °C - 16.0 °C 83% 1012.4 hPa 16.1 km East 16.7 km/h / 4.6 m/s - N/A Rain Light Rain
6:15 PM 19.0 °C - 16.0 °C 83% 1012.8 hPa 16.1 km East 11.1 km/h / 3.1 m/s 16.7 km/h / 4.6 m/s N/A   Overcast
6:35 PM 18.0 °C - 16.0 °C 88% 1013.1 hPa 16.1 km NE 9.3 km/h / 2.6 m/s - N/A   Overcast
6:55 PM 18.0 °C - 16.0 °C 88% 1013.4 hPa 16.1 km East 7.4 km/h / 2.1 m/s - N/A Thunderstorm Overcast
7:15 PM 19.0 °C - 16.0 °C 83% 1014.4 hPa 16.1 km NNE 11.1 km/h / 3.1 m/s - N/A Thunderstorm Overcast
7:35 PM 18.0 °C - 15.0 °C 83% 1014.8 hPa 16.1 km NE 16.7 km/h / 4.6 m/s - N/A Thunderstorm Overcast
7:55 PM 17.0 °C - 15.0 °C 88% 1015.1 hPa 11.3 km NNE 18.5 km/h / 5.1 m/s 31.5 km/h / 8.7 m/s N/A Rain , Thunderstorm Rain
8:15 PM 16.0 °C - 14.0 °C 88% 1016.5 hPa - NE 20.4 km/h / 5.7 m/s - 9.1 mm Thunderstorm Thunderstorm
8:35 PM 16.0 °C - 14.0 °C 88% 1016.8 hPa 16.1 km NE 20.4 km/h / 5.7 m/s - 13.0 mm Rain , Thunderstorm Rain
8:55 PM 16.0 °C - 14.0 °C 88% 1017.5 hPa 16.1 km ENE 7.4 km/h / 2.1 m/s - 0.3 mm Rain , Thunderstorm Light Thunderstorms and Rain
9:15 PM 15.0 °C - 14.0 °C 94% 1016.1 hPa 8.0 km ENE 18.5 km/h / 5.1 m/s - 0.3 mm Rain , Thunderstorm Light Thunderstorms and Rain
9:35 PM 16.0 °C - 15.0 °C 94% 1016.1 hPa 11.3 km East 16.7 km/h / 4.6 m/s - 0.3 mm   Clear
9:55 PM 16.0 °C - 15.0 °C 94% 1016.1 hPa 11.3 km ESE 11.1 km/h / 3.1 m/s - N/A Rain Light Rain
10:15 PM 16.0 °C - 15.0 °C 94% 1016.1 hPa 11.3 km ENE 11.1 km/h / 3.1 m/s - 0.3 mm Rain Light Rain
10:35 PM 16.0 °C - 15.0 °C 94% 1016.8 hPa 11.3 km Calm Calm - 0.3 mm   Clear
10:55 PM 16.0 °C - 15.0 °C 94% 1015.8 hPa 8.0 km East 7.4 km/h / 2.1 m/s - 0.3 mm Rain Rain
11:15 PM 16.0 °C - 15.0 °C 94% 1016.5 hPa 8.0 km Calm Calm - 0.3 mm   Scattered Clouds
11:35 PM 16.0 °C - 15.0 °C 94% 1016.8 hPa 11.3 km North 5.6 km/h / 1.5 m/s - 0.3 mm Rain Light Rain
11:55 PM 16.0 °C - 14.0 °C 88% 1017.2 hPa 11.3 km NNE 11.1 km/h / 3.1 m/s - N/A   Clear